TimeAST,TemperatureF,Dew PointF,Humidity,Sea Level PressureIn,VisibilityMPH,Wind Direction,Wind SpeedMPH,Gust SpeedMPH,PrecipitationIn,Events,Conditions,WindDirDegrees,DateUTC
12:53 AM,75.9,64.9,69,30.09,10.0,ESE,9.2,-,N/A,,Clear,110,2014-01-29 04:53:00
1:53 AM,75.0,66.0,73,30.07,10.0,East,9.2,-,N/A,,Partly Cloudy,100,2014-01-29 05:53:00
2:53 AM,73.9,64.0,71,30.05,10.0,East,9.2,-,N/A,,Clear,100,2014-01-29 06:53:00
3:53 AM,75.0,66.0,73,30.05,10.0,ESE,9.2,-,N/A,,Clear,110,2014-01-29 07:53:00
4:53 AM,75.0,64.9,71,30.04,10.0,East,6.9,-,N/A,,Clear,100,2014-01-29 08:53:00
5:53 AM,75.0,66.0,73,30.06,10.0,East,8.1,-,N/A,,Partly Cloudy,90,2014-01-29 09:53:00
6:53 AM,73.9,66.0,76,30.07,10.0,ESE,10.4,-,N/A,,Clear,110,2014-01-29 10:53:00
7:53 AM,77.0,66.0,69,30.09,10.0,ESE,9.2,-,N/A,,Clear,110,2014-01-29 11:53:00
8:53 AM,81.0,66.9,62,30.11,10.0,East,13.8,-,N/A,,Partly Cloudy,100,2014-01-29 12:53:00
9:53 AM,81.0,66.0,60,30.13,10.0,East,11.5,-,N/A,,Mostly Cloudy,90,2014-01-29 13:53:00
10:53 AM,82.9,66.9,58,30.12,10.0,SE,11.5,-,N/A,,Overcast,140,2014-01-29 14:53:00
11:53 AM,80.1,69.1,69,30.11,10.0,East,16.1,-,0.00,Rain,Light Rain,90,2014-01-29 15:53:00
12:53 PM,84.9,66.9,55,30.08,10.0,ESE,13.8,-,0.00,,Overcast,110,2014-01-29 16:53:00
1:53 PM,84.0,66.9,56,30.05,10.0,SE,16.1,-,N/A,,Mostly Cloudy,140,2014-01-29 17:53:00
2:53 PM,82.9,66.9,58,30.02,10.0,SE,16.1,29.9,N/A,,Partly Cloudy,140,2014-01-29 18:53:00
3:53 PM,82.0,68.0,62,30.01,10.0,SE,18.4,25.3,N/A,,Clear,130,2014-01-29 19:53:00
4:53 PM,82.0,66.9,60,30.01,10.0,SE,17.3,24.2,N/A,,Scattered Clouds,130,2014-01-29 20:53:00
5:53 PM,79.0,68.0,69,30.03,10.0,East,12.7,-,N/A,,Scattered Clouds,80,2014-01-29 21:53:00
6:53 PM,78.1,66.9,68,30.05,10.0,East,9.2,18.4,N/A,,Mostly Cloudy,100,2014-01-29 22:53:00
7:53 PM,75.9,66.0,71,30.07,10.0,East,11.5,24.2,0.00,Rain,Light Rain,80,2014-01-29 23:53:00
8:53 PM,75.9,66.9,74,30.08,10.0,East,10.4,-,0.00,,Clear,90,2014-01-30 00:53:00
9:53 PM,75.9,66.9,74,30.09,10.0,East,9.2,-,N/A,,Clear,90,2014-01-30 01:53:00
10:53 PM,73.9,69.1,85,30.10,6.0,East,9.2,-,0.01,Rain,Light Rain,100,2014-01-30 02:53:00
11:53 PM,75.0,68.0,79,30.08,10.0,East,8.1,-,0.00,,Mostly Cloudy,90,2014-01-30 03:53:00